Hourly Data Report for September 18, 2017

All times are specified in Local Standard Time (LST). Add 1 hour to adjust for Daylight Saving Time where and when it is observed.

ARCTIC BAY CS
NUNAVUT

72°59'34.000" N
85°00'44.000" W
10.00 m
2400404
71592
XAT

Download Data

Hourly Data (September 2017)
Hourly Data Report for September 18, 2017
Temp Definition
°C
Dew Point Temp Definition
°C
Rel Hum Definition
%
Wind Dir Definition
10's deg

Wind Spd Definition
km/h
Visibility Definition
km
Stn Press Definition
kPa
Hmdx Definition


Wind Chill Definition


Weather Definition


TIME
00:00 -0.4 -1.0 96 29 5   100.49   -2 LegendNANA
01:00 -0.5 -1.1 96 0 1   100.45   -1 LegendNANA
02:00 -0.2 -0.7 96 30 9   100.44   -3 LegendNANA
03:00 -0.1 -1.3 92 8 13   100.46   -4 LegendNANA
04:00 0.2 -1.5 88 7 15   100.45     LegendNANA
05:00 0.3 -1.4 89 7 19   100.49     LegendNANA
06:00 0.3 -1.6 87 6 19   100.52     LegendNANA
07:00 0.2 -2.4 83 8 8   100.55     LegendNANA
08:00 -0.2 -3.2 80 3 9   100.59   -3 LegendNANA
09:00 0.0 -3.7 77 11 5   100.64   -2 LegendNANA
10:00 -1.6 -4.5 81 11 11   100.71   -5 LegendNANA
11:00 -2.1 -5.6 77 5 4   100.75   -4 LegendNANA
12:00 -0.8 -4.5 76 6 11   100.84   -5 LegendNANA
13:00 -0.1 -3.9 76 5 15   100.89   -5 LegendNANA
14:00 1.5 -3.7 68 24 9   100.97     LegendNANA
15:00 0.4 -4.2 71 33 7   101.05     LegendNANA
16:00 -1.0 -5.2 73 36 9   101.13   -4 LegendNANA
17:00 0.4 -5.5 65 34 5   101.20     LegendNANA
18:00 0.0 -4.9 70 3 20   101.24   -5 LegendNANA
19:00 -0.5 -4.8 73 1 20   101.33   -6 LegendNANA
20:00 -0.9 -5.5 71 2 21   101.41   -7 LegendNANA
21:00 -1.5 -5.9 72 36 13   101.48   -6 LegendNANA
22:00 -1.5 -6.1 71 1 17   101.51   -7 LegendNANA
23:00 -1.6 -5.7 74 36 18   101.56   -7 LegendNANA

Notes on Data Quality.

Legend

  • E = Estimated
  • M = Missing
  • NA = Not Available
  • ‡ = Partner data that is not subject to review by the National Climate Archives
Date modified: